Year,Month,Day,Hour,Minute,Value (Times are PST for temperature in C)
2024,01,11,00,00,4.30
2024,01,11,00,01,4.30
2024,01,11,00,02,4.30
2024,01,11,00,03,4.30
2024,01,11,00,04,4.30
2024,01,11,00,05,4.30
2024,01,11,00,06,4.30
2024,01,11,00,07,4.40
2024,01,11,00,08,4.40
2024,01,11,00,09,4.50
2024,01,11,00,10,4.50
2024,01,11,00,11,4.60
2024,01,11,00,12,4.60
2024,01,11,00,13,4.60
2024,01,11,00,14,4.70
2024,01,11,00,15,4.80
2024,01,11,00,16,4.80
2024,01,11,00,17,4.80
2024,01,11,00,18,4.90
2024,01,11,00,19,4.90
2024,01,11,00,20,4.90
2024,01,11,00,21,5.00
2024,01,11,00,22,5.00
2024,01,11,00,23,5.00
2024,01,11,00,24,5.10
2024,01,11,00,25,5.10
2024,01,11,00,26,5.10
2024,01,11,00,27,5.10
2024,01,11,00,28,5.10
2024,01,11,00,29,5.10
2024,01,11,00,30,5.10
2024,01,11,00,31,5.10
2024,01,11,00,32,5.10
2024,01,11,00,33,5.10
2024,01,11,00,34,5.10
2024,01,11,00,35,5.10
2024,01,11,00,36,5.00
2024,01,11,00,37,5.00
2024,01,11,00,38,4.90
2024,01,11,00,39,4.90
2024,01,11,00,40,4.80
2024,01,11,00,41,4.80
2024,01,11,00,42,4.70
2024,01,11,00,43,4.70
2024,01,11,00,44,4.70
2024,01,11,00,45,4.70
2024,01,11,00,46,4.60
2024,01,11,00,47,4.60
2024,01,11,00,48,4.60
2024,01,11,00,49,4.60
2024,01,11,00,50,4.50
2024,01,11,00,51,4.50
2024,01,11,00,52,4.50
2024,01,11,00,53,4.40
2024,01,11,00,54,4.40
2024,01,11,00,55,4.40
2024,01,11,00,56,4.40
2024,01,11,00,57,4.30
2024,01,11,00,58,4.30
2024,01,11,00,59,4.30
2024,01,11,01,00,4.30
2024,01,11,01,01,4.30
2024,01,11,01,02,4.30
2024,01,11,01,03,4.20
2024,01,11,01,04,4.20
2024,01,11,01,05,4.20
2024,01,11,01,06,4.20
2024,01,11,01,07,4.20
2024,01,11,01,08,4.20
2024,01,11,01,09,4.20
2024,01,11,01,10,4.20
2024,01,11,01,11,4.10
2024,01,11,01,12,4.10
2024,01,11,01,13,4.10
2024,01,11,01,14,4.10
2024,01,11,01,15,4.10
2024,01,11,01,16,4.10
2024,01,11,01,17,4.10
2024,01,11,01,18,4.10
2024,01,11,01,19,4.10
2024,01,11,01,20,4.10
2024,01,11,01,21,4.10
2024,01,11,01,22,4.10
2024,01,11,01,23,4.10
2024,01,11,01,24,4.10
2024,01,11,01,25,4.10
2024,01,11,01,26,4.10
2024,01,11,01,27,4.10
2024,01,11,01,28,4.10
2024,01,11,01,29,4.10
2024,01,11,01,30,4.10
2024,01,11,01,31,4.10
2024,01,11,01,32,4.10
2024,01,11,01,33,4.10
2024,01,11,01,34,4.10
2024,01,11,01,35,4.10
2024,01,11,01,36,4.10
2024,01,11,01,37,4.10
2024,01,11,01,38,4.10
2024,01,11,01,39,4.10
2024,01,11,01,40,4.10
2024,01,11,01,41,4.10
2024,01,11,01,42,4.10
2024,01,11,01,43,4.10
2024,01,11,01,44,4.10
2024,01,11,01,45,4.00
2024,01,11,01,46,4.00
2024,01,11,01,47,4.00
2024,01,11,01,48,4.00
2024,01,11,01,49,3.90
2024,01,11,01,50,3.90
2024,01,11,01,51,3.90
2024,01,11,01,52,4.00
2024,01,11,01,53,4.00
2024,01,11,01,54,4.00
2024,01,11,01,55,4.00
2024,01,11,01,56,4.00
2024,01,11,01,57,4.00
2024,01,11,01,58,4.00
2024,01,11,01,59,4.00
2024,01,11,02,00,4.10
2024,01,11,02,01,4.10
2024,01,11,02,02,4.10
2024,01,11,02,03,4.10
2024,01,11,02,04,4.00
2024,01,11,02,05,4.00
2024,01,11,02,06,4.00
2024,01,11,02,07,4.00
2024,01,11,02,08,4.00
2024,01,11,02,09,4.00
2024,01,11,02,10,4.00
2024,01,11,02,11,3.90
2024,01,11,02,12,3.90
2024,01,11,02,13,3.80
2024,01,11,02,14,3.80
2024,01,11,02,15,3.80
2024,01,11,02,16,3.80
2024,01,11,02,17,3.70
2024,01,11,02,18,3.70
2024,01,11,02,19,3.70
2024,01,11,02,20,3.60
2024,01,11,02,21,3.60
2024,01,11,02,22,3.60
2024,01,11,02,23,3.60
2024,01,11,02,24,3.50
2024,01,11,02,25,3.50
2024,01,11,02,26,3.40
2024,01,11,02,27,3.40
2024,01,11,02,28,3.40
2024,01,11,02,29,3.40
2024,01,11,02,30,3.30
2024,01,11,02,31,3.30
2024,01,11,02,32,3.30
2024,01,11,02,33,3.30
2024,01,11,02,34,3.30
2024,01,11,02,35,3.30
2024,01,11,02,36,3.20
2024,01,11,02,37,3.20
2024,01,11,02,38,3.20
2024,01,11,02,39,3.20
2024,01,11,02,40,3.20
2024,01,11,02,41,3.20
2024,01,11,02,42,3.10
2024,01,11,02,43,3.10
2024,01,11,02,44,3.20
2024,01,11,02,45,3.20
2024,01,11,02,46,3.20
2024,01,11,02,47,3.20
2024,01,11,02,48,3.20
2024,01,11,02,49,3.20
2024,01,11,02,50,3.30
2024,01,11,02,51,3.30
2024,01,11,02,52,3.40
2024,01,11,02,53,3.40
2024,01,11,02,54,3.50
2024,01,11,02,55,3.60
2024,01,11,02,56,3.60
2024,01,11,02,57,3.70
2024,01,11,02,58,3.80
2024,01,11,02,59,3.80
2024,01,11,03,00,3.90
2024,01,11,03,01,3.90
2024,01,11,03,02,4.00
2024,01,11,03,03,4.00
2024,01,11,03,04,4.10
2024,01,11,03,05,4.10
2024,01,11,03,06,4.20
2024,01,11,03,07,4.20
2024,01,11,03,08,4.30
2024,01,11,03,09,4.30
2024,01,11,03,10,4.30
2024,01,11,03,11,4.40
2024,01,11,03,12,4.40
2024,01,11,03,13,4.40
2024,01,11,03,14,4.50
2024,01,11,03,15,4.50
2024,01,11,03,16,4.60
2024,01,11,03,17,4.60
2024,01,11,03,18,4.60
2024,01,11,03,19,4.50
2024,01,11,03,20,4.50
2024,01,11,03,21,4.50
2024,01,11,03,22,4.70
2024,01,11,03,23,4.80
2024,01,11,03,24,4.80
2024,01,11,03,25,4.90
2024,01,11,03,26,4.90
2024,01,11,03,27,5.00
2024,01,11,03,28,5.00
2024,01,11,03,29,5.00
2024,01,11,03,30,5.00
2024,01,11,03,31,5.00
2024,01,11,03,32,5.00
2024,01,11,03,33,5.00
2024,01,11,03,34,4.90
2024,01,11,03,35,4.90
2024,01,11,03,36,4.90
2024,01,11,03,37,4.90
2024,01,11,03,38,4.90
2024,01,11,03,39,5.00
2024,01,11,03,40,5.00
2024,01,11,03,41,5.00
2024,01,11,03,42,5.00
2024,01,11,03,43,5.10
2024,01,11,03,44,5.10
2024,01,11,03,45,5.10
2024,01,11,03,46,5.10
2024,01,11,03,47,5.10
2024,01,11,03,48,5.20
2024,01,11,03,49,5.20
2024,01,11,03,50,5.20
2024,01,11,03,51,5.20
2024,01,11,03,52,5.20
2024,01,11,03,53,5.20
2024,01,11,03,54,5.20
2024,01,11,03,55,5.20
2024,01,11,03,56,5.10
2024,01,11,03,57,5.10
2024,01,11,03,58,5.10
2024,01,11,03,59,5.10
2024,01,11,04,00,5.10
2024,01,11,04,01,5.10
2024,01,11,04,02,5.00
2024,01,11,04,03,5.00
2024,01,11,04,04,5.00
2024,01,11,04,05,4.90
2024,01,11,04,06,4.90
2024,01,11,04,07,4.90
2024,01,11,04,08,4.90
2024,01,11,04,09,4.90
2024,01,11,04,10,4.90
2024,01,11,04,11,4.90
2024,01,11,04,12,5.00
2024,01,11,04,13,5.00
2024,01,11,04,14,5.00
2024,01,11,04,15,5.00
2024,01,11,04,16,5.10
2024,01,11,04,17,5.10
2024,01,11,04,18,5.10
2024,01,11,04,19,5.10
2024,01,11,04,20,5.10
2024,01,11,04,21,5.10
2024,01,11,04,22,5.10
2024,01,11,04,23,5.00
2024,01,11,04,24,5.00
2024,01,11,04,25,5.00
2024,01,11,04,26,5.00
2024,01,11,04,27,5.00
2024,01,11,04,28,5.00
2024,01,11,04,29,4.90
2024,01,11,04,30,4.90
2024,01,11,04,31,4.90
2024,01,11,04,32,4.90
2024,01,11,04,33,4.90
2024,01,11,04,34,4.90
2024,01,11,04,35,4.80
2024,01,11,04,36,4.80
2024,01,11,04,37,4.80
2024,01,11,04,38,4.80
2024,01,11,04,39,4.80
2024,01,11,04,40,4.80
2024,01,11,04,41,4.80
2024,01,11,04,42,4.80
2024,01,11,04,43,4.80
2024,01,11,04,44,4.80
2024,01,11,04,45,4.80
2024,01,11,04,46,4.70
2024,01,11,04,47,4.70
2024,01,11,04,48,4.70
2024,01,11,04,49,4.70
2024,01,11,04,50,4.70
2024,01,11,04,51,4.60
2024,01,11,04,52,4.60
2024,01,11,04,53,4.60
2024,01,11,04,54,4.60
2024,01,11,04,55,4.60
2024,01,11,04,56,4.60
2024,01,11,04,57,4.60
2024,01,11,04,58,4.60
2024,01,11,04,59,4.60
2024,01,11,05,00,4.60
2024,01,11,05,01,4.60
2024,01,11,05,02,4.60
2024,01,11,05,03,4.70
2024,01,11,05,04,4.70
2024,01,11,05,05,4.60
2024,01,11,05,06,4.60
2024,01,11,05,07,4.60
2024,01,11,05,08,4.70
2024,01,11,05,09,4.70
2024,01,11,05,10,4.70
2024,01,11,05,11,4.70
2024,01,11,05,12,4.70
2024,01,11,05,13,4.70
2024,01,11,05,14,4.70
2024,01,11,05,15,4.70
2024,01,11,05,16,4.70
2024,01,11,05,17,4.70
2024,01,11,05,18,4.70
2024,01,11,05,19,4.70
2024,01,11,05,20,4.70
2024,01,11,05,21,4.70
2024,01,11,05,22,4.70
2024,01,11,05,23,4.70
2024,01,11,05,24,4.70
2024,01,11,05,25,4.70
2024,01,11,05,26,4.70
2024,01,11,05,27,4.70
2024,01,11,08,51,4.10
2024,01,11,08,52,4.10
2024,01,11,08,53,4.00
2024,01,11,08,54,4.00
2024,01,11,08,55,4.00
2024,01,11,08,56,4.00
2024,01,11,08,57,3.90
2024,01,11,08,58,3.90
2024,01,11,08,59,3.90
2024,01,11,09,00,3.90
2024,01,11,09,01,3.90
2024,01,11,09,02,3.90
2024,01,11,09,03,3.90
2024,01,11,09,04,3.90
2024,01,11,09,05,3.90
2024,01,11,09,06,3.90
2024,01,11,09,07,3.90
2024,01,11,09,08,3.90
2024,01,11,09,09,3.90
2024,01,11,09,10,3.90
2024,01,11,09,11,3.90
2024,01,11,09,12,4.00
2024,01,11,09,13,4.00
2024,01,11,09,14,4.00
2024,01,11,09,15,4.10
2024,01,11,09,16,4.10
2024,01,11,09,17,4.10
2024,01,11,09,18,4.10
2024,01,11,09,19,4.10
2024,01,11,09,20,4.20
2024,01,11,09,21,4.20
2024,01,11,09,22,4.20
2024,01,11,09,23,4.20
2024,01,11,09,24,4.20
2024,01,11,09,25,4.20
2024,01,11,09,26,4.20
2024,01,11,09,27,4.30
2024,01,11,09,28,4.30
2024,01,11,09,29,4.30
2024,01,11,09,30,4.30
2024,01,11,09,31,4.30
2024,01,11,09,32,4.30
2024,01,11,09,33,4.30
2024,01,11,09,34,4.30
2024,01,11,09,35,4.40
2024,01,11,09,36,4.40
2024,01,11,09,37,4.40
2024,01,11,09,38,4.40
2024,01,11,09,39,4.50
2024,01,11,09,40,4.50
2024,01,11,09,41,4.50
2024,01,11,09,42,4.60
2024,01,11,09,43,4.60
2024,01,11,09,44,4.60
2024,01,11,09,45,4.70
2024,01,11,09,46,4.70
2024,01,11,09,47,4.70
2024,01,11,09,48,4.70
2024,01,11,09,49,4.80
2024,01,11,09,50,4.80
2024,01,11,09,51,4.80
2024,01,11,09,52,4.80
2024,01,11,09,53,4.90
2024,01,11,09,54,4.90
2024,01,11,09,55,4.90
2024,01,11,09,56,4.90
2024,01,11,09,57,5.00
2024,01,11,09,58,5.00
2024,01,11,09,59,5.00
2024,01,11,10,00,5.10
2024,01,11,10,01,5.10
2024,01,11,10,02,5.10
2024,01,11,10,03,5.20
2024,01,11,10,04,5.20
2024,01,11,10,05,5.20
2024,01,11,10,06,5.30
2024,01,11,10,07,5.30
2024,01,11,10,08,5.30
2024,01,11,10,09,5.30
2024,01,11,10,10,5.40
2024,01,11,10,11,5.40
2024,01,11,10,12,5.40
2024,01,11,10,13,5.50
2024,01,11,10,14,5.50
2024,01,11,10,15,5.60
2024,01,11,10,16,5.60
2024,01,11,10,17,5.60
2024,01,11,10,18,5.70
2024,01,11,10,19,5.70
2024,01,11,10,20,5.70
2024,01,11,10,21,5.70
2024,01,11,10,22,5.70
2024,01,11,10,23,5.70
2024,01,11,10,24,5.70
2024,01,11,10,25,5.80
2024,01,11,10,26,5.80
2024,01,11,10,27,5.80
2024,01,11,10,28,5.80
2024,01,11,10,29,5.80
2024,01,11,10,30,5.80
2024,01,11,10,31,5.80
2024,01,11,10,32,5.80
2024,01,11,10,33,5.90
2024,01,11,10,34,5.90
2024,01,11,10,35,5.90
2024,01,11,10,36,5.90
2024,01,11,10,37,5.90
2024,01,11,10,38,5.90
2024,01,11,10,39,5.90
2024,01,11,10,40,6.00
2024,01,11,10,41,6.00
2024,01,11,10,42,6.00
2024,01,11,10,43,6.00
2024,01,11,10,44,6.00
2024,01,11,10,45,6.00
2024,01,11,10,46,6.00
2024,01,11,10,47,6.00
2024,01,11,10,48,6.10
2024,01,11,10,49,6.10
2024,01,11,10,50,6.10
2024,01,11,10,51,6.10
2024,01,11,10,52,6.10
2024,01,11,10,53,6.10
2024,01,11,10,54,6.10
2024,01,11,10,55,6.10
2024,01,11,10,56,6.20
2024,01,11,10,57,6.20
2024,01,11,10,58,6.20
2024,01,11,10,59,6.20
2024,01,11,11,00,6.20
2024,01,11,11,01,6.20
2024,01,11,11,02,6.20
2024,01,11,11,03,6.20
2024,01,11,11,04,6.30
2024,01,11,11,05,6.30
2024,01,11,11,06,6.30
2024,01,11,11,07,6.30
2024,01,11,11,08,6.30
2024,01,11,11,09,6.30
2024,01,11,11,10,6.30
2024,01,11,11,11,6.40
2024,01,11,11,12,6.40
2024,01,11,11,13,6.40
2024,01,11,11,14,6.40
2024,01,11,11,15,6.40
2024,01,11,11,16,6.40
2024,01,11,11,17,6.30
2024,01,11,11,18,6.30
2024,01,11,11,19,6.30
2024,01,11,11,20,6.30
2024,01,11,11,21,6.30
2024,01,11,11,22,6.30
2024,01,11,11,23,6.30
2024,01,11,11,24,6.30
2024,01,11,11,25,6.30
2024,01,11,11,26,6.30
2024,01,11,11,27,6.40
2024,01,11,11,28,6.50
2024,01,11,11,29,6.50
2024,01,11,11,30,6.60
2024,01,11,11,31,6.50
2024,01,11,11,32,6.50
2024,01,11,11,33,6.40
2024,01,11,11,34,6.40
2024,01,11,11,35,6.40
2024,01,11,11,36,6.30
2024,01,11,11,37,6.30
2024,01,11,11,38,6.30
2024,01,11,11,39,6.30
2024,01,11,11,40,6.20
2024,01,11,11,41,6.20
2024,01,11,11,42,6.20
2024,01,11,11,43,6.20
2024,01,11,11,44,6.20
2024,01,11,11,45,6.30
2024,01,11,11,46,6.30
2024,01,11,11,47,6.40
2024,01,11,11,48,6.40
2024,01,11,11,49,6.40
2024,01,11,11,50,6.40
2024,01,11,11,51,6.40
2024,01,11,11,52,6.50
2024,01,11,11,53,6.50
2024,01,11,11,54,6.50
2024,01,11,11,55,6.40
2024,01,11,11,56,6.40
2024,01,11,11,57,6.30
2024,01,11,11,58,6.20
2024,01,11,11,59,6.10
2024,01,11,12,00,6.10
2024,01,11,12,01,6.10
2024,01,11,12,02,6.10
2024,01,11,12,03,6.10
2024,01,11,12,04,6.10
2024,01,11,12,05,6.00
2024,01,11,12,06,5.90
2024,01,11,12,07,5.90
2024,01,11,12,08,5.90
2024,01,11,12,09,5.90
2024,01,11,12,10,6.00
2024,01,11,12,11,6.00
2024,01,11,12,12,6.00
2024,01,11,12,13,5.90
2024,01,11,12,14,5.80
2024,01,11,12,15,5.70
2024,01,11,12,16,5.60
2024,01,11,12,17,5.60
2024,01,11,12,18,5.50
2024,01,11,12,19,5.40
2024,01,11,12,20,5.40
2024,01,11,12,21,5.30
2024,01,11,12,22,5.30
2024,01,11,12,23,5.30
2024,01,11,12,24,5.30
2024,01,11,12,25,5.30
2024,01,11,12,26,5.20
2024,01,11,12,27,5.20
2024,01,11,12,28,5.20
2024,01,11,12,29,5.20
2024,01,11,12,30,5.20
2024,01,11,12,31,5.20
2024,01,11,12,32,5.20
2024,01,11,12,33,5.20
2024,01,11,12,34,5.20
2024,01,11,12,35,5.20
2024,01,11,12,36,5.10
2024,01,11,12,37,5.10
2024,01,11,12,38,5.10
2024,01,11,12,39,5.10
2024,01,11,12,40,5.10
2024,01,11,12,41,5.10
2024,01,11,12,42,5.10
2024,01,11,12,43,5.10
2024,01,11,12,44,5.10
2024,01,11,12,45,5.10
2024,01,11,12,46,5.10
2024,01,11,12,47,5.10
2024,01,11,12,48,5.10
2024,01,11,12,49,5.10
2024,01,11,12,50,5.00
2024,01,11,12,51,4.90
2024,01,11,12,52,4.90
2024,01,11,12,53,4.90
2024,01,11,12,54,4.80
2024,01,11,12,55,4.80
2024,01,11,12,56,4.80
2024,01,11,12,57,4.90
2024,01,11,12,58,4.90
2024,01,11,12,59,4.90
2024,01,11,13,00,4.90
2024,01,11,13,01,4.90
2024,01,11,13,02,4.80
2024,01,11,13,03,4.80
2024,01,11,13,04,4.70
2024,01,11,13,05,4.70
2024,01,11,13,06,4.70
2024,01,11,13,07,4.70
2024,01,11,13,08,4.60
2024,01,11,13,09,4.60
2024,01,11,13,10,4.60
2024,01,11,13,11,4.60
2024,01,11,13,12,4.50
2024,01,11,13,13,4.50
2024,01,11,13,14,4.50
2024,01,11,13,15,4.40
2024,01,11,13,16,4.40
2024,01,11,13,17,4.40
2024,01,11,13,18,4.40
2024,01,11,13,19,4.30
2024,01,11,13,20,4.30
2024,01,11,13,21,4.30
2024,01,11,13,22,4.20
2024,01,11,13,23,4.20
2024,01,11,13,24,4.20
2024,01,11,13,25,4.20
2024,01,11,13,26,4.20
2024,01,11,13,27,4.10
2024,01,11,13,28,4.10
2024,01,11,13,29,4.10
2024,01,11,13,30,4.10
2024,01,11,13,31,4.10
2024,01,11,13,32,4.00
2024,01,11,13,33,4.00
2024,01,11,13,34,3.80
2024,01,11,13,35,3.70
2024,01,11,13,36,3.60
2024,01,11,13,37,3.40
2024,01,11,13,38,3.40
2024,01,11,13,39,3.30
2024,01,11,13,40,3.20
2024,01,11,13,41,3.20
2024,01,11,13,42,3.10
2024,01,11,13,43,3.00
2024,01,11,13,44,3.00
2024,01,11,13,45,2.90
2024,01,11,13,46,2.90
2024,01,11,13,47,2.80
2024,01,11,13,48,2.70
2024,01,11,13,49,2.70
2024,01,11,13,50,2.60
2024,01,11,13,51,2.40
2024,01,11,13,52,2.40
2024,01,11,13,53,2.30
2024,01,11,13,54,2.20
2024,01,11,13,55,2.20
2024,01,11,13,56,2.20
2024,01,11,13,57,2.20
2024,01,11,13,58,2.20
2024,01,11,13,59,2.10
2024,01,11,14,00,2.10
2024,01,11,14,01,2.10
2024,01,11,14,02,2.10
2024,01,11,14,03,2.00
2024,01,11,14,04,2.00
2024,01,11,14,05,1.90
2024,01,11,14,06,1.80
2024,01,11,14,07,1.80
2024,01,11,14,08,1.70
2024,01,11,14,09,1.70
2024,01,11,14,10,1.60
2024,01,11,14,11,1.50
2024,01,11,14,12,1.40
2024,01,11,14,13,1.30
2024,01,11,14,14,1.20
2024,01,11,14,15,1.20
2024,01,11,14,16,1.10
2024,01,11,14,17,1.00
2024,01,11,14,18,1.00
2024,01,11,14,19,1.00
2024,01,11,14,20,1.00
2024,01,11,14,21,0.90
2024,01,11,14,22,0.90
2024,01,11,14,23,0.90
2024,01,11,14,24,0.90
2024,01,11,14,25,0.80
2024,01,11,14,26,0.90
2024,01,11,14,27,0.90
2024,01,11,14,28,0.90
2024,01,11,14,29,0.80
2024,01,11,14,30,0.80
2024,01,11,14,31,0.80
2024,01,11,14,32,0.80
2024,01,11,14,33,0.80
2024,01,11,14,34,0.70
2024,01,11,14,35,0.70
2024,01,11,14,36,0.70
2024,01,11,14,37,0.60
2024,01,11,14,38,0.60
2024,01,11,14,39,0.50
2024,01,11,14,40,0.50
2024,01,11,14,41,0.40
2024,01,11,14,42,0.40
2024,01,11,14,43,0.40
2024,01,11,14,44,0.40
2024,01,11,14,45,0.30
2024,01,11,14,46,0.30
2024,01,11,14,47,0.30
2024,01,11,14,48,0.20
2024,01,11,14,49,0.20
2024,01,11,14,50,0.20
2024,01,11,14,51,0.20
2024,01,11,14,52,0.20
2024,01,11,14,53,0.20
2024,01,11,14,54,0.20
2024,01,11,14,55,0.10
2024,01,11,14,56,0.10
2024,01,11,14,57,0.10
2024,01,11,14,58,0.10
2024,01,11,14,59,0.10
2024,01,11,15,00,0.00
2024,01,11,15,01,-0.10
2024,01,11,15,02,-0.10
2024,01,11,15,03,-0.20
2024,01,11,15,04,-0.20
2024,01,11,15,05,-0.20
2024,01,11,15,06,-0.20
2024,01,11,15,07,-0.20
2024,01,11,15,08,-0.20
2024,01,11,15,09,-0.20
2024,01,11,15,10,-0.20
2024,01,11,15,11,-0.20
2024,01,11,15,12,-0.30
2024,01,11,15,13,-0.30
2024,01,11,15,14,-0.30
2024,01,11,15,15,-0.30
2024,01,11,15,16,-0.30
2024,01,11,15,17,-0.40
2024,01,11,15,18,-0.40
2024,01,11,15,19,-0.40
2024,01,11,15,20,-0.50
2024,01,11,15,21,-0.50
2024,01,11,15,22,-0.50
2024,01,11,15,23,-0.60
2024,01,11,15,24,-0.60
2024,01,11,15,25,-0.70
2024,01,11,15,26,-0.70
2024,01,11,15,27,-0.80
2024,01,11,15,28,-0.90
2024,01,11,15,29,-1.00
2024,01,11,15,30,-1.00
2024,01,11,15,31,-1.00
2024,01,11,15,32,-1.00
2024,01,11,15,33,-1.10
2024,01,11,15,34,-1.10
2024,01,11,15,35,-1.10
2024,01,11,15,36,-1.10
2024,01,11,15,37,-1.20
2024,01,11,15,38,-1.20
2024,01,11,15,39,-1.20
2024,01,11,15,40,-1.20
2024,01,11,15,41,-1.20
2024,01,11,15,42,-1.10
2024,01,11,15,43,-1.10
2024,01,11,15,44,-1.20
2024,01,11,15,45,-1.30
2024,01,11,15,46,-1.30
2024,01,11,15,47,-1.30
2024,01,11,15,48,-1.40
2024,01,11,15,49,-1.40
2024,01,11,15,50,-1.40
2024,01,11,15,51,-1.40
2024,01,11,15,52,-1.40
2024,01,11,15,53,-1.40
2024,01,11,15,54,-1.40
2024,01,11,15,55,-1.50
2024,01,11,15,56,-1.60
2024,01,11,15,57,-1.60
2024,01,11,15,58,-1.70
2024,01,11,15,59,-1.70
2024,01,11,16,00,-1.70
2024,01,11,16,01,-1.70
2024,01,11,16,02,-1.70
2024,01,11,16,03,-1.70
2024,01,11,16,04,-1.70
2024,01,11,16,05,-1.70
2024,01,11,16,06,-1.70
2024,01,11,16,07,-1.70
2024,01,11,16,08,-1.70
2024,01,11,16,09,-1.70
2024,01,11,16,10,-1.70
2024,01,11,16,11,-1.80
2024,01,11,16,12,-1.80
2024,01,11,16,13,-1.80
2024,01,11,16,14,-1.90
2024,01,11,16,15,-1.80
2024,01,11,16,16,-1.80
2024,01,11,16,17,-1.80
2024,01,11,16,18,-1.80
2024,01,11,16,19,-1.90
2024,01,11,16,20,-1.90
2024,01,11,16,21,-1.90
2024,01,11,16,22,-1.90
2024,01,11,16,23,-1.90
2024,01,11,16,24,-1.90
2024,01,11,16,25,-1.90
2024,01,11,16,26,-1.90
2024,01,11,16,27,-2.00
2024,01,11,16,28,-2.00
2024,01,11,16,29,-2.10
2024,01,11,16,30,-2.10
2024,01,11,16,31,-2.10
2024,01,11,16,32,-2.10
2024,01,11,16,33,-2.10
2024,01,11,16,34,-2.10
2024,01,11,16,35,-2.10
2024,01,11,16,36,-2.10
2024,01,11,16,37,-2.20
2024,01,11,16,38,-2.20
2024,01,11,16,39,-2.20
2024,01,11,16,40,-2.20
2024,01,11,16,41,-2.10
2024,01,11,16,42,-2.10
2024,01,11,16,43,-2.20
2024,01,11,16,44,-2.20
2024,01,11,16,45,-2.20
2024,01,11,16,46,-2.30
2024,01,11,16,47,-2.40
2024,01,11,16,48,-2.40
2024,01,11,16,49,-2.50
2024,01,11,16,50,-2.60
2024,01,11,16,51,-2.60
2024,01,11,16,52,-2.60
2024,01,11,16,53,-2.70
2024,01,11,16,54,-2.70
2024,01,11,16,55,-2.70
2024,01,11,16,56,-2.70
2024,01,11,16,57,-2.70
2024,01,11,16,58,-2.70
2024,01,11,16,59,-2.70
2024,01,11,17,00,-2.70
2024,01,11,17,01,-2.70
2024,01,11,17,02,-2.70
2024,01,11,17,03,-2.70
2024,01,11,17,04,-2.70
2024,01,11,17,05,-2.70
2024,01,11,17,06,-2.70
2024,01,11,17,07,-2.70
2024,01,11,17,08,-2.70
2024,01,11,17,09,-2.70
2024,01,11,17,10,-2.70
2024,01,11,17,11,-2.70
2024,01,11,17,12,-2.70
2024,01,11,17,13,-2.70
2024,01,11,17,14,-2.70
2024,01,11,17,15,-2.70
2024,01,11,17,16,-2.70
2024,01,11,17,17,-2.70
2024,01,11,17,18,-2.60
2024,01,11,17,19,-2.60
2024,01,11,17,20,-2.50
2024,01,11,17,21,-2.50
2024,01,11,17,22,-2.40
2024,01,11,17,23,-2.40
2024,01,11,17,24,-2.40
2024,01,11,17,25,-2.40
2024,01,11,17,26,-2.40
2024,01,11,17,27,-2.50
2024,01,11,17,28,-2.50
2024,01,11,17,29,-2.60
2024,01,11,17,30,-2.60
2024,01,11,17,31,-2.60
2024,01,11,17,32,-2.60
2024,01,11,17,33,-2.60
2024,01,11,17,34,-2.60
2024,01,11,17,35,-2.50
2024,01,11,17,36,-2.50
2024,01,11,17,37,-2.60
2024,01,11,17,38,-2.70
2024,01,11,17,39,-2.70
2024,01,11,17,40,-2.80
2024,01,11,17,41,-2.80
2024,01,11,17,42,-2.80
2024,01,11,17,43,-2.80
2024,01,11,17,44,-2.80
2024,01,11,17,45,-2.90
2024,01,11,17,46,-2.90
2024,01,11,17,47,-2.90
2024,01,11,17,48,-2.90
2024,01,11,17,49,-2.90
2024,01,11,17,50,-3.00
2024,01,11,17,51,-3.00
2024,01,11,17,52,-3.10
2024,01,11,17,53,-3.10
2024,01,11,17,54,-3.10
2024,01,11,17,55,-3.10
2024,01,11,17,56,-3.10
2024,01,11,17,57,-3.10
2024,01,11,17,58,-3.10
2024,01,11,17,59,-3.20
2024,01,11,18,00,-3.20
2024,01,11,18,01,-3.20
2024,01,11,18,02,-3.20
2024,01,11,18,03,-3.20
2024,01,11,18,04,-3.20
2024,01,11,18,05,-3.20
2024,01,11,18,06,-3.20
2024,01,11,18,07,-3.20
2024,01,11,18,08,-3.20
2024,01,11,18,09,-3.20
2024,01,11,18,10,-3.20
2024,01,11,18,11,-3.30
2024,01,11,18,12,-3.30
2024,01,11,18,13,-3.30
2024,01,11,18,14,-3.30
2024,01,11,18,15,-3.30
2024,01,11,18,16,-3.30
2024,01,11,18,17,-3.30
2024,01,11,18,18,-3.30
2024,01,11,18,19,-3.30
2024,01,11,18,20,-3.30
2024,01,11,18,21,-3.30
2024,01,11,18,22,-3.30
2024,01,11,18,23,-3.30
2024,01,11,18,24,-3.40
2024,01,11,18,25,-3.40
2024,01,11,18,26,-3.40
2024,01,11,18,27,-3.30
2024,01,11,18,28,-3.30
2024,01,11,18,29,-3.30
2024,01,11,18,30,-3.30
2024,01,11,18,31,-3.30
2024,01,11,18,32,-3.30
2024,01,11,18,33,-3.40
2024,01,11,18,34,-3.50
2024,01,11,18,35,-3.50
2024,01,11,18,36,-3.50
2024,01,11,18,37,-3.60
2024,01,11,18,38,-3.60
2024,01,11,18,39,-3.60
2024,01,11,18,40,-3.60
2024,01,11,18,41,-3.60
2024,01,11,18,42,-3.60
2024,01,11,18,43,-3.60
2024,01,11,18,44,-3.70
2024,01,11,18,45,-3.70
2024,01,11,18,46,-3.80
2024,01,11,18,47,-3.80
2024,01,11,18,48,-3.80
2024,01,11,18,49,-3.80
2024,01,11,18,50,-3.80
2024,01,11,18,51,-3.80
2024,01,11,18,52,-3.80
2024,01,11,18,53,-3.80
2024,01,11,18,54,-3.80
2024,01,11,18,55,-3.80
2024,01,11,18,56,-3.80
2024,01,11,18,57,-3.80
2024,01,11,18,58,-3.80
2024,01,11,18,59,-3.80
2024,01,11,19,00,-3.80
2024,01,11,19,01,-3.80
2024,01,11,19,02,-3.80
2024,01,11,19,03,-3.90
2024,01,11,19,04,-3.90
2024,01,11,19,05,-3.80
2024,01,11,19,06,-3.90
2024,01,11,19,07,-3.90
2024,01,11,19,08,-3.90
2024,01,11,19,09,-4.00
2024,01,11,19,10,-4.10
2024,01,11,19,11,-4.10
2024,01,11,19,12,-4.10
2024,01,11,19,13,-4.10
2024,01,11,19,14,-4.10
2024,01,11,19,15,-4.10
2024,01,11,19,16,-4.10
2024,01,11,19,17,-4.10
2024,01,11,19,18,-4.10
2024,01,11,19,19,-4.10
2024,01,11,19,20,-4.10
2024,01,11,19,21,-4.10
2024,01,11,19,22,-4.10
2024,01,11,19,23,-4.10
2024,01,11,19,24,-4.10
2024,01,11,19,25,-4.20
2024,01,11,19,26,-4.20
2024,01,11,19,27,-4.10
2024,01,11,19,28,-4.10
2024,01,11,19,29,-4.10
2024,01,11,19,30,-4.10
2024,01,11,19,31,-4.10
2024,01,11,19,32,-4.10
2024,01,11,19,33,-4.10
2024,01,11,19,34,-4.10
2024,01,11,19,35,-4.10
2024,01,11,19,36,-4.10
2024,01,11,19,37,-4.10
2024,01,11,19,38,-4.10
2024,01,11,19,39,-4.10
2024,01,11,19,40,-4.10
2024,01,11,19,41,-4.10
2024,01,11,19,42,-4.10
2024,01,11,19,43,-4.10
2024,01,11,19,44,-4.20
2024,01,11,19,45,-4.20
2024,01,11,19,46,-4.20
2024,01,11,19,47,-4.20
2024,01,11,19,48,-4.30
2024,01,11,19,49,-4.30
2024,01,11,19,50,-4.30
2024,01,11,19,51,-4.30
2024,01,11,19,52,-4.30
2024,01,11,19,53,-4.30
2024,01,11,19,54,-4.40
2024,01,11,19,55,-4.40
2024,01,11,19,56,-4.40
2024,01,11,19,57,-4.40
2024,01,11,19,58,-4.40
2024,01,11,19,59,-4.40
2024,01,11,20,00,-4.40
2024,01,11,20,01,-4.40
2024,01,11,20,02,-4.50
2024,01,11,20,03,-4.40
2024,01,11,20,04,-4.50
2024,01,11,20,05,-4.50
2024,01,11,20,06,-4.50
2024,01,11,20,07,-4.50
2024,01,11,20,08,-4.50
2024,01,11,20,09,-4.50
2024,01,11,20,10,-4.50
2024,01,11,20,11,-4.50
2024,01,11,20,12,-4.50
2024,01,11,20,13,-4.60
2024,01,11,20,14,-4.60
2024,01,11,20,15,-4.60
2024,01,11,20,16,-4.60
2024,01,11,20,17,-4.60
2024,01,11,20,18,-4.70
2024,01,11,20,19,-4.70
2024,01,11,20,20,-4.70
2024,01,11,20,21,-4.70
2024,01,11,20,22,-4.70
2024,01,11,20,23,-4.70
2024,01,11,20,24,-4.60
2024,01,11,20,25,-4.60
2024,01,11,20,26,-4.70
2024,01,11,20,27,-4.70
2024,01,11,20,28,-4.70
2024,01,11,20,29,-4.80
2024,01,11,20,30,-4.80
2024,01,11,20,31,-4.80
2024,01,11,20,32,-4.80
2024,01,11,20,33,-4.80
2024,01,11,20,34,-4.80
2024,01,11,20,35,-4.90
2024,01,11,20,36,-4.90
2024,01,11,20,37,-4.90
2024,01,11,20,38,-4.90
2024,01,11,20,39,-5.00
2024,01,11,20,40,-4.90
2024,01,11,20,41,-4.90
2024,01,11,20,42,-4.90
2024,01,11,20,43,-4.90
2024,01,11,20,44,-4.90
2024,01,11,20,45,-4.90
2024,01,11,20,46,-4.90
2024,01,11,20,47,-4.90
2024,01,11,20,48,-4.90
2024,01,11,20,49,-5.00
2024,01,11,20,50,-5.00
2024,01,11,20,51,-5.00
2024,01,11,20,52,-5.00
2024,01,11,20,53,-5.00
2024,01,11,20,54,-5.00
2024,01,11,20,55,-4.90
2024,01,11,20,56,-4.90
2024,01,11,20,57,-4.90
2024,01,11,20,58,-4.90
2024,01,11,20,59,-5.00
2024,01,11,21,00,-5.00
2024,01,11,21,01,-5.10
2024,01,11,21,02,-5.10
2024,01,11,21,03,-5.10
2024,01,11,21,04,-5.10
2024,01,11,21,05,-5.10
2024,01,11,21,06,-5.10
2024,01,11,21,07,-5.10
2024,01,11,21,08,-5.10
2024,01,11,21,09,-5.10
2024,01,11,21,10,-5.20
2024,01,11,21,11,-5.20
2024,01,11,21,12,-5.30